[[{"header":{"parameterUnit":"m.s-1","parameterCategory":1,"la1":30.2991,"la2":30.254,"lo1":-89.0895,"lo2":-89.0444,"dy":0.0017,"dx":0.0017,"nx":28,"ny":28,"refTime":"2024-08-11T21:00:00:Z","depth":0,"parameterNumber":2,"parameterNumberName":"U-component_of_WINDS"},"data":[0,0,0,0,0,0,0,0,0,0,0,0,0,0,0,0,0,0,0,0,0,0,0,0,0,0,0,0,0,0,0,0,0,0,0,0,0,0,0,0,0,0,0,0,0,0,0,0,0,0,0,0,0,0,0,0,0,0,-0.4653,-0.4652,0,-0.4575,-0.4574,-0.4573,-0.453,-0.453,-0.453,-0.453,-0.4446,-0.4444,-0.4442,0,0,0,0,0,0,0,0,0,0,0,0,0,-0.4762,-0.4761,-0.4653,-0.4652,-0.4651,-0.4575,-0.4574,-0.4573,-0.453,-0.453,-0.453,-0.453,-0.4447,-0.4445,-0.4442,0,0,0,0,0,0,0,0,0,0,0,0,0,-0.4703,-0.476,-0.4653,-0.4621,-0.4617,-0.4575,-0.4574,-0.4573,-0.453,-0.453,-0.453,-0.453,-0.4448,-0.4445,-0.4442,-0.4425,0,0,-0.4432,-0.443,0,0,0,0,0,0,0,0,-0.4706,-0.4699,-0.4627,-0.4623,-0.4619,-0.4562,-0.4582,-0.4523,-0.453,-0.4563,-0.453,-0.453,-0.4485,-0.4479,-0.4464,-0.4421,-0.4417,-0.4432,-0.443,-0.4428,-0.4427,0,0,0,0,0,0,0,-0.471,-0.4702,-0.4622,-0.4626,-0.4621,-0.4609,-0.4601,-0.457,-0.4526,-0.456,-0.4557,-0.4549,-0.4483,-0.4467,-0.4462,-0.4416,-0.4432,-0.4429,-0.4427,-0.4426,-0.4356,-0.4356,0,0,0,0,0,0,-0.472,-0.4705,-0.4624,-0.462,-0.4663,-0.4607,-0.4598,-0.458,-0.4526,-0.4518,-0.4549,-0.4547,-0.4473,-0.4466,-0.4459,-0.4436,-0.4428,-0.4425,-0.4423,-0.4356,-0.4356,-0.4356,0,0,0,0,0,0,-0.4723,-0.4713,-0.4628,-0.4662,-0.465,-0.4606,-0.4587,-0.4579,-0.4564,-0.4517,-0.4509,-0.4542,-0.4472,-0.4463,-0.4434,-0.4432,-0.4424,-0.4421,-0.4356,-0.4356,-0.4356,-0.439,0,0,0,0,0,0,-0.4726,-0.4714,-0.4708,-0.4662,-0.4648,-0.4605,-0.4587,-0.4578,-0.4559,-0.4556,-0.4508,-0.45,-0.4472,-0.4439,-0.4431,-0.4428,-0.4418,-0.4356,-0.4356,-0.4356,-0.4389,-0.4391,-0.4393,0,0,0,0,0,-0.473,-0.472,-0.4708,-0.4698,-0.464,-0.4605,-0.4597,-0.4566,-0.4559,-0.4552,-0.4522,-0.4502,-0.4434,-0.4436,-0.4427,-0.4423,-0.4356,-0.4356,-0.4356,-0.4388,-0.4391,-0.4393,0,0,0,0,0,0,-0.4765,-0.4713,-0.4699,-0.4674,-0.4645,-0.4598,-0.4588,-0.457,-0.454,-0.4538,-0.4499,-0.4489,-0.4463,-0.444,-0.4444,-0.4404,-0.4393,-0.4391,-0.442,-0.4423,-0.4425,-0.4431,-0.4416,0,0,0,0,0,-0.477,-0.4748,-0.4703,-0.4685,-0.4671,-0.4632,-0.4616,-0.4595,-0.4562,-0.4549,-0.4517,-0.4485,-0.4456,-0.4438,-0.4409,-0.4385,-0.4374,-0.4378,-0.438,-0.4382,-0.4381,-0.4367,-0.4368,-0.4356,-0.4356,-0.4356,0,0,-0.478,-0.4749,-0.4737,-0.4691,-0.4666,-0.4642,-0.4622,-0.4598,-0.458,-0.4544,-0.4515,-0.4491,-0.4453,-0.4426,-0.4413,-0.4406,-0.4382,-0.4383,-0.4385,-0.4382,-0.4367,-0.4369,-0.437,-0.4357,-0.4357,-0.4357,0,0,-0.4786,-0.476,-0.4743,-0.4718,-0.4681,-0.4655,-0.4651,-0.4608,-0.4591,-0.4561,-0.4534,-0.4512,-0.4464,-0.4438,-0.4418,-0.4417,-0.4397,-0.4408,-0.442,-0.4406,-0.4407,-0.4408,-0.4407,-0.4407,-0.4407,-0.4407,-0.4407,0,-0.4802,-0.4767,-0.4736,-0.4714,-0.4694,-0.4663,-0.4645,-0.4622,-0.4577,-0.4564,-0.4557,-0.4497,-0.4469,-0.4436,-0.4436,-0.4421,-0.4415,-0.4413,-0.441,-0.441,-0.441,-0.4409,-0.4409,-0.4409,-0.4409,-0.4409,-0.4408,0,-0.4789,-0.4765,-0.4756,-0.4714,-0.4694,-0.4674,-0.4639,-0.4622,-0.4603,-0.4578,-0.4549,-0.4514,-0.4478,-0.4469,-0.4449,-0.4434,-0.4431,-0.4418,-0.4405,-0.4414,-0.4412,-0.4411,-0.4411,-0.4411,-0.441,-0.441,0,0,-0.4813,-0.4757,-0.4753,-0.4735,-0.4692,-0.4672,-0.4651,-0.4617,-0.4603,-0.4573,-0.4554,-0.4515,-0.4503,-0.4481,-0.4458,-0.4447,-0.4448,-0.4435,-0.4433,-0.4438,-0.4429,-0.4439,-0.4439,-0.4435,-0.4435,-0.4435,-0.4432,0,-0.4813,-0.4774,-0.4746,-0.4718,-0.4695,-0.4666,-0.4647,-0.4619,-0.4595,-0.4572,-0.4546,-0.4519,-0.4505,-0.4492,-0.4479,-0.445,-0.4445,-0.445,-0.4416,-0.4415,-0.4426,-0.4438,-0.4448,-0.4447,-0.4431,-0.4431,-0.4431,0,-0.4807,-0.478,-0.475,-0.471,-0.4699,-0.4683,-0.4651,-0.4629,-0.4596,-0.458,-0.4557,-0.4534,-0.4509,-0.45,-0.4466,-0.447,-0.4454,-0.4438,-0.4438,-0.4432,-0.4423,-0.4433,-0.4446,-0.4446,-0.443,-0.443,-0.443,0,-0.4827,-0.4783,-0.476,-0.4744,-0.4698,-0.4687,-0.4667,-0.4634,-0.4616,-0.4587,-0.4575,-0.4544,-0.4526,-0.4502,-0.4471,-0.4468,-0.444,-0.4429,-0.4426,-0.4426,-0.442,-0.4421,-0.4431,-0.4411,-0.4411,-0.4411,-0.4411,0,-0.4829,-0.4812,-0.4768,-0.4754,-0.4734,-0.4702,-0.4682,-0.4659,-0.4631,-0.4611,-0.4583,-0.4565,-0.4526,-0.4502,-0.4478,-0.4454,-0.4446,-0.4432,-0.4425,-0.4434,-0.4436,-0.4422,-0.4421,-0.4411,-0.4411,-0.4411,-0.4411,0,-0.4848,-0.4819,-0.4791,-0.475,-0.4739,-0.4726,-0.469,-0.4675,-0.4651,-0.4626,-0.4618,-0.458,-0.4552,-0.4519,-0.4479,-0.4463,-0.444,-0.4431,-0.4452,-0.4448,-0.4447,-0.4447,-0.4448,-0.4446,-0.4429,-0.4429,-0.4429,0,-0.4851,-0.4837,-0.4795,-0.4781,-0.4762,-0.4739,-0.4721,-0.4689,-0.4671,-0.4633,-0.4622,-0.4592,-0.4566,-0.4522,-0.449,-0.446,-0.4449,-0.4452,-0.4444,-0.4454,-0.4449,-0.445,-0.4449,-0.4454,-0.4454,-0.4454,-0.4455,0,-0.4859,-0.4846,-0.4821,-0.4792,-0.4772,-0.4747,-0.4721,-0.4711,-0.4674,-0.4655,-0.4626,-0.4607,-0.4567,-0.4537,-0.4504,-0.4482,-0.4462,-0.4458,-0.4455,-0.4463,-0.4476,-0.4469,-0.4457,-0.4457,-0.4457,-0.4457,-0.4457,-0.4456,-0.4869,-0.4856,-0.4825,-0.4799,-0.4777,-0.4754,-0.4738,-0.4713,-0.4689,-0.4655,-0.4637,-0.4609,-0.4577,-0.453,-0.4509,-0.4486,-0.4479,-0.4476,-0.4475,-0.4474,-0.4477,-0.4481,-0.448,-0.448,-0.4479,-0.4479,-0.4479,0,-0.4876,-0.4855,-0.4832,-0.4797,-0.4777,-0.4762,-0.4733,-0.4717,-0.4693,-0.4665,-0.4641,-0.4608,-0.458,-0.4547,-0.4516,-0.4504,-0.4494,-0.4497,-0.4497,-0.4493,-0.4485,-0.449,-0.4506,-0.4506,-0.4506,-0.4506,-0.4506,-0.4506,-0.4877,-0.4854,-0.4837,-0.4803,-0.4781,-0.4755,-0.4739,-0.4718,-0.4696,-0.4661,-0.4638,-0.4617,-0.4587,-0.4555,-0.4528,-0.4519,-0.4509,-0.4514,-0.4502,-0.4495,-0.4493,-0.4491,-0.4495,-0.4512,-0.4512,-0.4512,-0.4512,-0.4512]},{"header":{"parameterUnit":"m.s-1","parameterCategory":1,"la1":30.2991,"la2":30.254,"lo1":-89.0895,"lo2":-89.0444,"dy":0.0017,"dx":0.0017,"nx":28,"ny":28,"refTime":"2024-08-11T21:00:00:Z","depth":0,"parameterNumber":3,"parameterNumberName":"V-component_of_WINDS"},"data":[0,0,0,0,0,0,0,0,0,0,0,0,0,0,0,0,0,0,0,0,0,0,0,0,0,0,0,0,0,0,0,0,0,0,0,0,0,0,0,0,0,0,0,0,0,0,0,0,0,0,0,0,0,0,0,0,0,0,1.3443,1.3444,0,1.348,1.348,1.348,1.3467,1.3467,1.3466,1.3465,1.35,1.3502,1.3503,0,0,0,0,0,0,0,0,0,0,0,0,0,1.336,1.3362,1.3443,1.3444,1.3444,1.348,1.348,1.3481,1.3467,1.3466,1.3466,1.3465,1.3499,1.3501,1.3503,0,0,0,0,0,0,0,0,0,0,0,0,0,1.3397,1.3363,1.3443,1.3442,1.3442,1.3479,1.348,1.3481,1.3468,1.3466,1.3465,1.3464,1.3499,1.3501,1.3504,1.3544,0,0,1.3511,1.3513,0,0,0,0,0,0,0,0,1.3394,1.34,1.3442,1.3442,1.3443,1.3468,1.3464,1.3502,1.3468,1.3458,1.3465,1.3464,1.349,1.3493,1.3503,1.3545,1.3547,1.3512,1.3513,1.3514,1.3515,0,0,0,0,0,0,0,1.3392,1.3398,1.3458,1.3442,1.3443,1.3439,1.3443,1.3471,1.348,1.3459,1.3458,1.3462,1.349,1.35,1.3503,1.3547,1.3512,1.3514,1.3515,1.3516,1.3622,1.3623,0,0,0,0,0,0,1.339,1.3396,1.3457,1.3459,1.3415,1.3441,1.3446,1.3461,1.348,1.3482,1.3463,1.3462,1.3497,1.35,1.3505,1.355,1.3514,1.3517,1.3518,1.362,1.3622,1.3623,0,0,0,0,0,0,1.3388,1.3395,1.3455,1.3427,1.3434,1.3444,1.3461,1.3462,1.3472,1.3484,1.3485,1.3472,1.3496,1.3501,1.3534,1.3551,1.3518,1.352,1.3619,1.3621,1.3623,1.3643,0,0,0,0,0,0,1.3386,1.3395,1.341,1.3428,1.3436,1.3484,1.3463,1.3464,1.3477,1.3475,1.3492,1.3494,1.3495,1.353,1.3536,1.3554,1.3522,1.3617,1.362,1.3622,1.3641,1.3645,1.3649,0,0,0,0,0,1.3383,1.3415,1.3411,1.3419,1.3456,1.3485,1.349,1.3491,1.3479,1.3494,1.3501,1.3493,1.3549,1.3533,1.354,1.3559,1.3616,1.3619,1.3622,1.3639,1.3644,1.3649,0,0,0,0,0,0,1.3399,1.3417,1.3413,1.3452,1.3467,1.3483,1.3502,1.3498,1.3516,1.3514,1.3514,1.3518,1.3551,1.3559,1.3541,1.3598,1.358,1.3585,1.3591,1.3596,1.3601,1.3597,1.3524,0,0,0,0,0,1.3408,1.343,1.3445,1.3478,1.3485,1.3493,1.3506,1.3505,1.3521,1.3527,1.3536,1.3551,1.3571,1.3585,1.3605,1.3643,1.3645,1.3659,1.3664,1.3667,1.367,1.3688,1.3694,1.3633,1.3633,1.3633,0,0,1.3424,1.3437,1.3451,1.3481,1.3493,1.3515,1.3498,1.3523,1.3539,1.353,1.3561,1.3569,1.3585,1.362,1.3636,1.3627,1.3688,1.3671,1.3673,1.3674,1.3692,1.3697,1.3703,1.3635,1.3634,1.3634,0,0,1.3466,1.3479,1.3507,1.3519,1.3537,1.3541,1.3548,1.3565,1.3569,1.36,1.3594,1.3613,1.3649,1.366,1.367,1.3716,1.3708,1.3722,1.3744,1.3762,1.3766,1.3771,1.3784,1.3789,1.3726,1.3726,1.3726,0,1.3484,1.3519,1.3521,1.3546,1.3559,1.3553,1.3579,1.3591,1.3614,1.3622,1.3613,1.3657,1.3668,1.3704,1.3715,1.3725,1.3731,1.3719,1.3766,1.377,1.3774,1.3787,1.3792,1.3727,1.3727,1.3727,1.3727,0,1.3539,1.3563,1.3583,1.3605,1.362,1.3646,1.3652,1.3667,1.3665,1.3671,1.3701,1.3714,1.3735,1.3744,1.3744,1.378,1.3774,1.3766,1.3748,1.3781,1.3793,1.3798,1.3729,1.3729,1.3728,1.3728,0,0,1.359,1.3614,1.3621,1.363,1.365,1.3668,1.3693,1.3714,1.3725,1.3742,1.3762,1.3792,1.3784,1.3796,1.3796,1.3813,1.3844,1.3802,1.3802,1.3807,1.3883,1.3887,1.3893,1.3841,1.3842,1.3843,1.388,0,1.3631,1.3676,1.3678,1.3718,1.3739,1.3734,1.3755,1.3769,1.3775,1.3792,1.3799,1.3819,1.3808,1.3815,1.3831,1.3837,1.3859,1.3835,1.3857,1.3858,1.385,1.3899,1.3904,1.3939,1.3885,1.3886,1.3887,0,1.3684,1.3702,1.3744,1.3759,1.3768,1.3787,1.3806,1.3824,1.3839,1.3842,1.3855,1.3853,1.3877,1.3861,1.3893,1.3876,1.3886,1.3891,1.3892,1.3892,1.3872,1.3898,1.395,1.3954,1.3895,1.3894,1.3894,0,1.3714,1.3749,1.3777,1.3786,1.3805,1.3818,1.3827,1.3841,1.3853,1.387,1.3877,1.3896,1.3906,1.3921,1.3923,1.3912,1.3955,1.3939,1.3956,1.3956,1.3963,1.3962,1.4015,1.3974,1.3974,1.3974,1.3974,0,1.3757,1.3782,1.379,1.3808,1.3835,1.3839,1.3865,1.3873,1.3885,1.3903,1.3901,1.3917,1.3921,1.3939,1.3941,1.3966,1.3971,1.3973,1.3973,1.3972,1.3971,1.3976,1.3973,1.3976,1.3975,1.3975,1.3975,0,1.3793,1.3801,1.3831,1.3847,1.3851,1.387,1.3883,1.3899,1.3905,1.3928,1.3933,1.3942,1.3962,1.3967,1.3991,1.3993,1.4022,1.4021,1.4016,1.4015,1.4031,1.4029,1.4087,1.4094,1.4051,1.4051,1.4051,0,1.3819,1.3838,1.3856,1.3868,1.3877,1.3897,1.3909,1.3913,1.3926,1.3944,1.3957,1.3977,1.3993,1.4025,1.4033,1.4051,1.4048,1.4068,1.4051,1.4049,1.4046,1.4043,1.4044,1.407,1.407,1.4071,1.4071,0,1.3863,1.3866,1.3884,1.3903,1.3917,1.3933,1.3947,1.3957,1.3963,1.3977,1.3998,1.401,1.4035,1.4054,1.4072,1.408,1.4076,1.4077,1.4081,1.4079,1.4074,1.4074,1.4022,1.4075,1.4074,1.4074,1.4074,1.4074,1.3893,1.3909,1.3923,1.3943,1.3955,1.3968,1.3984,1.3992,1.4009,1.4029,1.4031,1.4053,1.4066,1.409,1.4099,1.4115,1.4109,1.4117,1.4118,1.4119,1.4119,1.4074,1.4119,1.4119,1.4119,1.4119,1.4119,0,1.3934,1.3944,1.3962,1.3982,1.3998,1.3994,1.401,1.4023,1.4042,1.4056,1.4071,1.4094,1.4113,1.4122,1.414,1.4151,1.415,1.4156,1.4154,1.4155,1.4125,1.4118,1.4156,1.4156,1.4156,1.4156,1.4156,1.4156,1.3957,1.3983,1.3987,1.4019,1.4028,1.4049,1.4058,1.407,1.4081,1.4107,1.4122,1.4129,1.414,1.4159,1.4175,1.4178,1.4183,1.4189,1.4191,1.4161,1.4157,1.4154,1.4147,1.4191,1.4191,1.4219,1.422,1.422]}]]